Regional Weather Roundup
Issued by NWS Cleveland, OH

Home | Current Version | Previous Version | Graphics & Text | Print | Product List | Glossary On
Versions: 1 2 3 4 5 6 7 8 9 10 11 12 13 14 15 16 17 18 19 20 21 22 23 24 25 26 27 28 29 30 31 32 33 34 35 36 37 38 39 40 41 42 43 44 45 46 47 48 49 50
000
ASUS41 KCLE 242210
RWRCLE
OHIO REGIONAL WEATHER ROUNDUP
NATIONAL WEATHER SERVICE CLEVELAND, OH
600 PM EDT MON JUL 24 2017

NOTE: "FAIR" INDICATES FEW OR NO CLOUDS BELOW 12,000 FEET WITH NO
SIGNIFICANT WEATHER AND/OR OBSTRUCTIONS TO VISIBILITY.

OHZ001>008-015>018-024>027-034-035-043-044-242300-
   NORTHWEST OHIO

CITY           SKY/WX    TMP DP  RH WIND       PRES   REMARKS
DEFIANCE       PTSUNNY  N/A N/A N/A N9        30.04S
FINDLAY        MOSUNNY   72  58  61 N12       30.02R
TOLEDO EXPRESS MOSUNNY   72  58  61 NW6       30.03S
TOLEDO EXEC    MOSUNNY   72  59  63 NW7       30.03S
LIMA           CLOUDY    71  58  63 N10       30.03R
$$

OHZ009>014-019>023-028>033-038-089-242300-
   NORTHEAST OHIO

CITY           SKY/WX    TMP DP  RH WIND       PRES   REMARKS
CLE-HOPKINS    CLOUDY    72  59  63 N9        30.00S
CLE-LAKEFRONT  CLOUDY    70  58  65 NW16      29.97S
CUY CO. ARPT   CLOUDY    70  59  68 NW12G21   29.99R
LORAIN-ELYRIA  CLOUDY    69  55  60 N10G17    30.01R
ASHTABULA      CLOUDY    66  59  78 NW12G20   29.96R
AKRON-CANTON   PTSUNNY   70  57  63 NW15      29.98R
WOOSTER        CLOUDY    69  59  70 NW12      30.00R
MANSFIELD      CLOUDY    70  59  68 N12       30.02R
YOUNGSTOWN     PTSUNNY   69  58  67 NW16G22   29.96R
$$

OHZ042-051>053-060>062-070>072-077>081-242300-
  SOUTHWEST OHIO

CITY           SKY/WX    TMP DP  RH WIND       PRES   REMARKS
CINC-COVINGTON PTSUNNY   83  67  58 N12       29.96S
CINC-LUNKEN    MOSUNNY   84  67  56 N12       29.95R
HAMILTON       MOSUNNY   82  68  62 N7        29.97R
DAYTON         MOSUNNY   76  62  62 N13       30.00F
WRIGHT-PAT AFB SUNNY     78  64  61 N13       29.98S
DAYTON GENERAL MOSUNNY   79  64  60 N14       29.98R
WILMINGTON     MOSUNNY   79  67  66 N10       29.97R
$$

OHZ036-037-039>041-045>050-054>059-063>069-073>076-082>088-242300-
  CENTRAL AND SOUTHEAST OHIO

CITY           SKY/WX    TMP DP  RH WIND       PRES   REMARKS
COLUMBUS       MOSUNNY   77  63  61 N14G24    29.97R
OSU AIRPORT    MOSUNNY   75  62  64 N16       29.99R
BOLTON FIELD   PTSUNNY   75  64  69 NW14G21   29.99R
RICKENBACK AFB SUNNY     77  64  63 N13       29.96S
NEWARK         MOSUNNY   77  60  55 N9G17     29.97R
MARION         CLOUDY    73  58  59 N15       30.02R
LANCASTER      MOSUNNY   77  65  66 N14G22    29.97R
ZANESVILLE     MOSUNNY   79  63  57 NW15G22   29.95R
NEW PHILLY     NOT AVBL
$$



USA.gov is the U.S. government's official web portal to all federal, state and local government web resources and services.